PTSHR SBBV-SWBC

Flight info

Callsign PTSHR
Flight time 1h 32m
Altitude 6000
Route NEVDU
Aircraft E110/L-SDG/C

Departure

Time 2026-05-04 16:33
Airport Atlas Brasil Cantanhede International Airport (SBBV)

Arrival

Time 2026-05-04 18:05
Airport Barcelos Airport (SWBC)
Time Latitude Longitude Altitude Speed Heading
2026-05-04 16:21 2.84157 -60.69346 270 ft 0 kts 152°
2026-05-04 16:28 2.84153 -60.69343 270 ft 0 kts 139°
2026-05-04 16:28 2.84216 -60.69318 270 ft 7 kts 12°
2026-05-04 16:29 2.84232 -60.69446 270 ft 20 kts 242°
2026-05-04 16:30 2.84025 -60.69852 268 ft 24 kts 243°
2026-05-04 16:31 2.83964 -60.70037 268 ft 9 kts 302°
2026-05-04 16:31 2.84144 -60.69965 268 ft 43 kts 63°
2026-05-04 16:32 2.85256 -60.68344 670 ft 107 kts 48°
2026-05-04 16:33 2.86722 -60.68227 1178 ft 122 kts 333°
2026-05-04 16:33 2.87226 -60.69791 1633 ft 135 kts 245°
2026-05-04 16:34 2.85760 -60.70545 1991 ft 124 kts 154°
2026-05-04 16:34 2.85024 -60.70110 2161 ft 124 kts 138°
2026-05-04 16:35 2.82461 -60.69173 2668 ft 141 kts 161°
2026-05-04 16:35 2.79549 -60.68751 3149 ft 148 kts 166°
2026-05-04 16:36 2.78493 -60.68632 3307 ft 150 kts 166°
2026-05-04 16:36 2.76382 -60.68405 3638 ft 151 kts 167°
2026-05-04 16:37 2.74393 -60.68196 3954 ft 151 kts 166°
2026-05-04 16:37 2.73383 -60.68091 4120 ft 151 kts 166°
2026-05-04 16:37 2.71249 -60.67867 4455 ft 151 kts 166°
2026-05-04 16:38 2.69127 -60.67646 4769 ft 151 kts 166°
2026-05-04 16:39 2.65936 -60.67312 5213 ft 151 kts 166°
2026-05-04 16:39 2.63840 -60.67093 5497 ft 152 kts 166°
2026-05-04 16:40 2.61681 -60.66867 5722 ft 156 kts 166°
2026-05-04 16:40 2.59493 -60.66639 5961 ft 157 kts 166°
2026-05-04 16:41 2.57280 -60.66406 6013 ft 169 kts 166°
2026-05-04 16:41 2.53575 -60.66021 5982 ft 181 kts 167°
2026-05-04 16:42 2.49763 -60.65624 5986 ft 184 kts 167°
2026-05-04 16:43 2.47183 -60.65354 5992 ft 185 kts 168°
2026-05-04 16:43 2.44695 -60.65095 5983 ft 186 kts 168°
2026-05-04 16:43 2.43366 -60.64955 5986 ft 186 kts 167°
2026-05-04 16:44 2.38148 -60.64410 5991 ft 186 kts 168°
2026-05-04 16:45 2.35574 -60.64142 5993 ft 186 kts 167°
2026-05-04 16:46 2.31607 -60.63725 5994 ft 187 kts 168°
2026-05-04 16:46 2.28995 -60.63451 5990 ft 187 kts 167°
2026-05-04 16:47 2.26366 -60.63176 5992 ft 187 kts 168°
2026-05-04 16:47 2.23775 -60.62906 5996 ft 187 kts 167°
2026-05-04 16:48 2.19831 -60.62493 5995 ft 187 kts 167°
2026-05-04 16:48 2.18492 -60.62556 5970 ft 196 kts 195°
2026-05-04 16:49 2.16198 -60.64060 6001 ft 198 kts 213°
2026-05-04 16:49 2.13937 -60.65694 5996 ft 199 kts 212°
2026-05-04 16:50 2.11693 -60.67322 5999 ft 200 kts 213°
2026-05-04 16:50 2.09451 -60.68949 5996 ft 201 kts 213°
2026-05-04 16:51 2.07134 -60.70631 6001 ft 201 kts 213°
2026-05-04 16:51 2.05996 -60.71457 6000 ft 201 kts 213°
2026-05-04 16:51 2.03712 -60.73114 6002 ft 201 kts 213°
2026-05-04 16:52 2.01449 -60.74757 6002 ft 201 kts 213°
2026-05-04 16:52 2.00281 -60.75604 6002 ft 201 kts 213°
2026-05-04 16:53 1.97982 -60.77273 6006 ft 201 kts 213°
2026-05-04 16:53 1.94555 -60.79760 6001 ft 201 kts 213°
2026-05-04 16:54 1.93406 -60.80594 5998 ft 201 kts 213°
2026-05-04 16:55 1.88930 -60.83842 5995 ft 200 kts 213°
2026-05-04 16:55 1.86807 -60.85383 5994 ft 200 kts 212°
2026-05-04 16:56 1.84533 -60.87032 5996 ft 200 kts 213°
2026-05-04 16:56 1.81093 -60.89528 5993 ft 200 kts 213°
2026-05-04 16:57 1.79959 -60.90351 5994 ft 200 kts 213°
2026-05-04 16:57 1.77689 -60.91998 5995 ft 201 kts 213°
2026-05-04 16:58 1.74258 -60.94487 5985 ft 201 kts 213°
2026-05-04 16:58 1.73114 -60.95318 5996 ft 201 kts 213°
2026-05-04 16:59 1.70831 -60.96973 5993 ft 201 kts 213°
2026-05-04 17:00 1.66266 -61.00285 5994 ft 201 kts 213°
2026-05-04 17:00 1.62879 -61.02742 5990 ft 201 kts 213°
2026-05-04 17:01 1.60604 -61.04392 5996 ft 201 kts 212°
2026-05-04 17:01 1.58322 -61.06047 5992 ft 201 kts 213°
2026-05-04 17:02 1.56035 -61.07706 5993 ft 201 kts 213°
2026-05-04 17:02 1.53762 -61.09355 5996 ft 201 kts 213°
2026-05-04 17:03 1.52646 -61.10165 5994 ft 201 kts 213°
2026-05-04 17:03 1.51510 -61.10989 5994 ft 202 kts 213°
2026-05-04 17:03 1.49243 -61.12632 5987 ft 202 kts 213°
2026-05-04 17:04 1.46964 -61.14282 5991 ft 201 kts 213°
2026-05-04 17:04 1.44721 -61.15902 5991 ft 201 kts 213°
2026-05-04 17:05 1.42444 -61.17551 5992 ft 201 kts 212°
2026-05-04 17:05 1.40166 -61.19202 5988 ft 201 kts 212°
2026-05-04 17:06 1.37874 -61.20864 5993 ft 201 kts 212°
2026-05-04 17:06 1.36737 -61.21688 5998 ft 202 kts 212°
2026-05-04 17:07 1.34455 -61.23343 5992 ft 202 kts 213°
2026-05-04 17:07 1.33695 -61.23895 5995 ft 202 kts 212°
2026-05-04 17:07 1.32170 -61.25000 5994 ft 202 kts 213°
2026-05-04 17:07 1.31029 -61.25828 5993 ft 201 kts 212°
2026-05-04 17:08 1.29886 -61.26657 5993 ft 201 kts 213°
2026-05-04 17:08 1.27615 -61.28303 6003 ft 202 kts 213°
2026-05-04 17:08 1.26474 -61.29131 5998 ft 202 kts 212°
2026-05-04 17:09 1.25331 -61.29959 5991 ft 202 kts 212°
2026-05-04 17:09 1.24186 -61.30790 5996 ft 202 kts 212°
2026-05-04 17:09 1.23037 -61.31623 5996 ft 202 kts 212°
2026-05-04 17:10 1.20754 -61.33277 5999 ft 202 kts 213°
2026-05-04 17:10 1.17338 -61.35755 5995 ft 202 kts 212°
2026-05-04 17:11 1.16182 -61.36593 6005 ft 202 kts 212°
2026-05-04 17:11 1.15051 -61.37413 6001 ft 202 kts 213°
2026-05-04 17:11 1.12756 -61.39078 5996 ft 201 kts 212°
2026-05-04 17:12 1.11646 -61.39882 5995 ft 201 kts 212°
2026-05-04 17:12 1.09362 -61.41538 5998 ft 202 kts 213°
2026-05-04 17:13 1.05939 -61.44020 5995 ft 202 kts 213°
2026-05-04 17:14 1.02496 -61.46516 6001 ft 202 kts 213°
2026-05-04 17:14 1.01346 -61.47349 6001 ft 202 kts 213°
2026-05-04 17:14 0.99048 -61.49015 6003 ft 202 kts 213°
2026-05-04 17:15 0.97911 -61.49839 6002 ft 203 kts 213°
2026-05-04 17:15 0.95615 -61.51504 6007 ft 203 kts 213°
2026-05-04 17:16 0.93307 -61.53177 6000 ft 203 kts 213°
2026-05-04 17:16 0.89853 -61.55680 6003 ft 203 kts 213°
2026-05-04 17:17 0.88715 -61.56506 6000 ft 203 kts 213°
2026-05-04 17:17 0.85256 -61.59014 5998 ft 202 kts 212°
2026-05-04 17:18 0.84110 -61.59843 6003 ft 202 kts 213°
2026-05-04 17:18 0.81827 -61.61499 6000 ft 202 kts 213°
2026-05-04 17:19 0.79530 -61.63163 5995 ft 202 kts 213°
2026-05-04 17:19 0.77234 -61.64828 5999 ft 202 kts 213°
2026-05-04 17:20 0.74945 -61.66488 5993 ft 202 kts 213°
2026-05-04 17:20 0.72666 -61.68138 5993 ft 202 kts 213°
2026-05-04 17:20 0.71528 -61.68964 5992 ft 201 kts 213°
2026-05-04 17:21 0.69229 -61.70629 5992 ft 201 kts 213°
2026-05-04 17:21 0.66954 -61.72278 5997 ft 201 kts 213°
2026-05-04 17:22 0.65816 -61.73103 5994 ft 201 kts 212°
2026-05-04 17:22 0.64680 -61.73927 5998 ft 201 kts 213°
2026-05-04 17:23 0.61256 -61.76408 5996 ft 201 kts 213°
2026-05-04 17:23 0.60127 -61.77226 5999 ft 201 kts 213°
2026-05-04 17:23 0.57844 -61.78881 5992 ft 201 kts 213°
2026-05-04 17:24 0.56710 -61.79703 5989 ft 201 kts 213°
2026-05-04 17:24 0.53290 -61.82181 5998 ft 201 kts 213°
2026-05-04 17:25 0.52162 -61.82999 5996 ft 201 kts 213°
2026-05-04 17:25 0.49876 -61.84657 5996 ft 201 kts 213°
2026-05-04 17:26 0.47610 -61.86298 5987 ft 202 kts 212°
2026-05-04 17:26 0.44226 -61.88750 6000 ft 201 kts 212°
2026-05-04 17:27 0.41952 -61.90398 5994 ft 201 kts 213°
2026-05-04 17:27 0.39668 -61.92054 5990 ft 201 kts 212°
2026-05-04 17:28 0.37398 -61.93698 6003 ft 201 kts 212°
2026-05-04 17:29 0.33963 -61.96188 6003 ft 202 kts 213°
2026-05-04 17:29 0.30567 -61.98649 6015 ft 203 kts 213°
2026-05-04 17:30 0.27088 -62.01171 6029 ft 207 kts 213°
2026-05-04 17:31 0.24741 -62.02872 6012 ft 208 kts 213°
2026-05-04 17:31 0.21229 -62.05417 6021 ft 207 kts 213°
2026-05-04 17:32 0.18859 -62.07135 5989 ft 206 kts 213°
2026-05-04 17:33 0.15401 -62.09640 5994 ft 202 kts 213°
2026-05-04 17:33 0.14259 -62.10468 6001 ft 202 kts 213°
2026-05-04 17:34 0.10806 -62.12970 5997 ft 202 kts 213°
2026-05-04 17:34 0.09655 -62.13803 5984 ft 202 kts 213°
2026-05-04 17:35 0.06223 -62.16291 6034 ft 203 kts 213°
2026-05-04 17:35 0.03889 -62.17981 6050 ft 207 kts 213°
2026-05-04 17:35 0.02710 -62.18836 6045 ft 209 kts 214°
2026-05-04 17:36 0.01516 -62.19702 6039 ft 210 kts 213°
2026-05-04 17:36 0.00321 -62.20568 6041 ft 211 kts 213°
2026-05-04 17:36 -0.00860 -62.21424 6039 ft 211 kts 213°
2026-05-04 17:36 -0.02071 -62.22301 6033 ft 211 kts 213°
2026-05-04 17:37 -0.03272 -62.23172 6023 ft 211 kts 214°
2026-05-04 17:37 -0.04471 -62.24042 6025 ft 210 kts 213°
2026-05-04 17:37 -0.05656 -62.24900 6037 ft 209 kts 213°
2026-05-04 17:37 -0.06840 -62.25758 6036 ft 210 kts 213°
2026-05-04 17:38 -0.08040 -62.26627 5987 ft 209 kts 213°
2026-05-04 17:38 -0.09224 -62.27486 5978 ft 206 kts 213°
2026-05-04 17:38 -0.10381 -62.28324 5990 ft 204 kts 213°
2026-05-04 17:38 -0.11542 -62.29165 5986 ft 203 kts 213°
2026-05-04 17:39 -0.13844 -62.30833 5992 ft 201 kts 213°
2026-05-04 17:39 -0.14990 -62.31663 5989 ft 202 kts 213°
2026-05-04 17:39 -0.16138 -62.32494 5992 ft 201 kts 213°
2026-05-04 17:40 -0.17273 -62.33317 5994 ft 201 kts 213°
2026-05-04 17:40 -0.18398 -62.34132 5997 ft 200 kts 214°
2026-05-04 17:40 -0.19537 -62.34958 5995 ft 200 kts 213°
2026-05-04 17:40 -0.20667 -62.35776 5994 ft 200 kts 213°
2026-05-04 17:41 -0.21808 -62.36603 5990 ft 201 kts 213°
2026-05-04 17:41 -0.22942 -62.37426 5995 ft 200 kts 213°
2026-05-04 17:41 -0.24085 -62.38253 5992 ft 200 kts 213°
2026-05-04 17:41 -0.25221 -62.39076 6000 ft 201 kts 213°
2026-05-04 17:42 -0.26364 -62.39905 5998 ft 201 kts 214°
2026-05-04 17:42 -0.27500 -62.40729 5991 ft 201 kts 213°
2026-05-04 17:42 -0.28636 -62.41551 6022 ft 201 kts 214°
2026-05-04 17:42 -0.29788 -62.42387 6030 ft 202 kts 213°
2026-05-04 17:43 -0.30904 -62.43195 6011 ft 204 kts 214°
2026-05-04 17:43 -0.32055 -62.44030 5995 ft 204 kts 213°
2026-05-04 17:43 -0.33223 -62.44876 5984 ft 204 kts 214°
2026-05-04 17:43 -0.34379 -62.45714 5994 ft 202 kts 213°
2026-05-04 17:44 -0.35514 -62.46536 5994 ft 201 kts 214°
2026-05-04 17:44 -0.36646 -62.47357 5994 ft 201 kts 214°
2026-05-04 17:44 -0.37798 -62.48191 6000 ft 200 kts 214°
2026-05-04 17:44 -0.38922 -62.49005 6011 ft 200 kts 214°
2026-05-04 17:45 -0.40058 -62.49829 6004 ft 201 kts 214°
2026-05-04 17:45 -0.41206 -62.50661 5993 ft 201 kts 214°
2026-05-04 17:45 -0.42341 -62.51483 5991 ft 201 kts 213°
2026-05-04 17:45 -0.43484 -62.52313 5990 ft 201 kts 213°
2026-05-04 17:46 -0.44624 -62.53138 6001 ft 200 kts 214°
2026-05-04 17:46 -0.45749 -62.53954 5998 ft 201 kts 214°
2026-05-04 17:46 -0.46899 -62.54787 5996 ft 201 kts 214°
2026-05-04 17:46 -0.48032 -62.55607 6001 ft 200 kts 214°
2026-05-04 17:47 -0.49179 -62.56438 6000 ft 200 kts 214°
2026-05-04 17:47 -0.50307 -62.57257 5995 ft 200 kts 213°
2026-05-04 17:47 -0.51469 -62.58098 5997 ft 200 kts 214°
2026-05-04 17:47 -0.52597 -62.58916 5998 ft 201 kts 214°
2026-05-04 17:48 -0.53745 -62.59748 5995 ft 201 kts 214°
2026-05-04 17:48 -0.54882 -62.60573 6000 ft 201 kts 214°
2026-05-04 17:48 -0.56027 -62.61402 5998 ft 201 kts 214°
2026-05-04 17:48 -0.57161 -62.62223 5998 ft 201 kts 214°
2026-05-04 17:49 -0.58291 -62.63044 5995 ft 201 kts 214°
2026-05-04 17:49 -0.59433 -62.63876 5995 ft 200 kts 214°
2026-05-04 17:49 -0.60569 -62.64707 5997 ft 200 kts 214°
2026-05-04 17:49 -0.61691 -62.65524 5993 ft 200 kts 214°
2026-05-04 17:50 -0.62825 -62.66347 5991 ft 200 kts 214°
2026-05-04 17:50 -0.63954 -62.67166 5989 ft 200 kts 214°
2026-05-04 17:50 -0.65099 -62.67996 5989 ft 200 kts 214°
2026-05-04 17:50 -0.66234 -62.68819 5994 ft 199 kts 214°
2026-05-04 17:51 -0.67350 -62.69628 5990 ft 199 kts 214°
2026-05-04 17:51 -0.68484 -62.70449 5991 ft 199 kts 214°
2026-05-04 17:51 -0.69611 -62.71267 5991 ft 199 kts 214°
2026-05-04 17:51 -0.70744 -62.72088 5990 ft 198 kts 214°
2026-05-04 17:52 -0.71859 -62.72896 5986 ft 198 kts 214°
2026-05-04 17:52 -0.72993 -62.73718 5988 ft 198 kts 214°
2026-05-04 17:52 -0.74119 -62.74534 5991 ft 198 kts 214°
2026-05-04 17:52 -0.75225 -62.75336 5988 ft 198 kts 214°
2026-05-04 17:53 -0.76358 -62.76156 5989 ft 198 kts 214°
2026-05-04 17:53 -0.77487 -62.76975 5990 ft 199 kts 214°
2026-05-04 17:53 -0.78628 -62.77802 5989 ft 199 kts 214°
2026-05-04 17:53 -0.79746 -62.78612 5989 ft 199 kts 214°
2026-05-04 17:54 -0.80875 -62.79431 5989 ft 199 kts 214°
2026-05-04 17:54 -0.81997 -62.80244 5990 ft 198 kts 214°
2026-05-04 17:54 -0.83149 -62.81079 5975 ft 200 kts 214°
2026-05-04 17:54 -0.84317 -62.81925 5788 ft 212 kts 214°
2026-05-04 17:55 -0.85551 -62.82820 5573 ft 220 kts 214°
2026-05-04 17:55 -0.86833 -62.83689 5206 ft 221 kts 204°
2026-05-04 17:55 -0.88258 -62.84109 4790 ft 212 kts 185°
2026-05-04 17:55 -0.89710 -62.84446 4322 ft 213 kts 192°
2026-05-04 17:56 -0.91066 -62.85098 3829 ft 217 kts 209°
2026-05-04 17:56 -0.92294 -62.85887 3426 ft 215 kts 205°
2026-05-04 17:56 -0.93561 -62.86443 3212 ft 198 kts 199°
2026-05-04 17:56 -0.94668 -62.87180 2967 ft 187 kts 222°
2026-05-04 17:57 -0.95539 -62.88139 2588 ft 189 kts 224°
2026-05-04 17:57 -0.96450 -62.89130 1962 ft 198 kts 226°
2026-05-04 17:57 -0.97367 -62.90133 1544 ft 191 kts 225°
2026-05-04 17:57 -0.98368 -62.90828 1571 ft 164 kts 183°
2026-05-04 17:58 -0.99374 -62.90542 1481 ft 148 kts 117°
2026-05-04 17:58 -0.99544 -62.89561 1252 ft 148 kts 65°
2026-05-04 17:58 -0.98864 -62.88851 1149 ft 148 kts 37°
2026-05-04 17:58 -0.98232 -62.88025 985 ft 152 kts 59°
2026-05-04 17:59 -0.97781 -62.87091 992 ft 148 kts 62°
2026-05-04 17:59 -0.97430 -62.86130 926 ft 149 kts 70°
2026-05-04 17:59 -0.96469 -62.84443 970 ft 138 kts
2026-05-04 18:00 -0.95554 -62.84776 950 ft 144 kts 319°
2026-05-04 18:00 -0.95112 -62.85715 736 ft 156 kts 273°
2026-05-04 18:00 -0.95402 -62.86692 815 ft 146 kts 227°
2026-05-04 18:00 -0.96233 -62.87236 719 ft 147 kts 194°
2026-05-04 18:01 -0.97249 -62.87569 579 ft 149 kts 189°
2026-05-04 18:01 -0.98234 -62.87915 492 ft 148 kts 204°
2026-05-04 18:01 -0.99067 -62.88511 481 ft 142 kts 223°
2026-05-04 18:02 -0.99723 -62.90198 699 ft 121 kts 278°
2026-05-04 18:02 -0.99347 -62.90969 586 ft 130 kts 311°
2026-05-04 18:02 -0.98692 -62.91500 623 ft 121 kts 336°
2026-05-04 18:02 -0.97845 -62.91779 500 ft 131 kts 343°
2026-05-04 18:03 -0.96970 -62.91970 492 ft 125 kts
2026-05-04 18:03 -0.96226 -62.91673 580 ft 114 kts 44°
2026-05-04 18:03 -0.95932 -62.90943 617 ft 112 kts 73°
2026-05-04 18:03 -0.95989 -62.90140 609 ft 118 kts 101°
2026-05-04 18:04 -0.96467 -62.89493 670 ft 123 kts 139°
2026-05-04 18:04 -0.97341 -62.89341 624 ft 133 kts 187°
2026-05-04 18:04 -0.98043 -62.90933 263 ft 147 kts 275°
2026-05-04 18:05 -0.98123 -62.91791 114 ft 77 kts 260°
2026-05-04 18:05 -0.98176 -62.92079 115 ft 24 kts 267°
2026-05-04 18:05 -0.98146 -62.92201 114 ft 18 kts 338°
2026-05-04 18:05 -0.98052 -62.92215 114 ft 11 kts 347°